N1IJV-10 Weather Reports


time (UTC)temp
F
wind
direction
speed
knots
gust
knots
rain 1hr
in
rain 24hr
in
rain mn
in
humidity
%
barometer
mb
20260508132757 51 142 0.0 0.9 0.00 0.00 0.00 83 1010.4
20260508132254 51 76 0.9 0.9 0.00 0.00 0.00 85 1010.5
20260508131750 50 94 0.9 0.9 0.00 0.00 0.00 86 1010.4
20260508131247 49 88 0.9 0.9 0.00 0.00 0.00 87 1010.4
20260508130743 49 85 0.0 0.9 0.00 0.00 0.00 88 1010.3
20260508130241 48 89 0.0 1.7 0.00 0.00 0.00 88 1010.3
20260508125736 48 92 0.9 0.9 0.00 0.00 0.00 90 1010.5
20260508125232 48 97 0.9 0.9 0.00 0.00 0.00 90 1010.3
20260508124731 47 102 0.9 2.6 0.00 0.00 0.00 90 1010.7
20260508124228 47 85 0.9 0.9 0.00 0.00 0.00 92 1010.3
20260508123726 46 87 0.9 0.9 0.00 0.00 0.00 93 1010.2
20260508123224 46 122 0.9 1.7 0.00 0.00 0.00 95 1010.3
20260508122719 45 86 0.0 0.9 0.00 0.00 0.00 96 1010.4
20260508122217 45 85 0.0 0.9 0.00 0.00 0.00 96 1010.5
20260508121714 44 98 0.0 0.9 0.00 0.00 0.00 97 1010.7
20260508121213 44 108 0.0 0.0 0.00 0.00 0.00 98 1010.7
20260508120709 44 80 0.0 0.9 0.00 0.00 0.00 98 1010.4
20260508120208 43 67 0.9 0.9 0.00 0.00 0.00 98 1010.4
20260508115705 43 61 0.0 2.6 0.00 0.00 0.00 99 1010.3
20260508115202 43 80 0.0 0.0 0.00 0.00 0.00 99 1010.4
20260508114659 43 88 0.0 0.0 0.00 0.00 0.00 99 1010.3
20260508114155 43 92 0.0 0.0 0.00 0.00 0.00 99 1010.3
20260508113652 43 89 0.0 0.0 0.00 0.00 0.00 99 1010.3
20260508113151 43 90 0.0 0.0 0.00 0.00 0.00 99 1010.5
20260508112646 43 91 0.0 0.0 0.00 0.00 0.00 99 1010.2
20260508112143 43 89 0.0 0.0 0.00 0.00 0.00 99 1010.2
20260508111640 42 93 0.0 0.0 0.00 0.00 0.00 99 1010.2
20260508111137 42 97 0.0 0.0 0.00 0.00 0.00 99 1010.3
20260508110635 42 90 0.0 0.0 0.00 0.00 0.00 99 1010.1
20260508110131 42 89 0.0 0.0 0.00 0.00 0.00 99 1010.0
20260508105626 42 91 0.0 0.0 0.00 0.00 0.00 99 1010.0
20260508105123 41 82 0.0 0.0 0.00 0.00 0.00 99 1009.9
20260508104621 41 86 0.0 0.0 0.00 0.00 0.00 99 1010.1
20260508104117 41 84 0.0 0.0 0.00 0.00 0.00 99 1009.9
20260508103614 41 92 0.0 0.0 0.00 0.00 0.00 99 1010.5
20260508103112 40 99 0.0 0.0 0.00 0.00 0.00 99 1010.2
20260508102609 40 100 0.0 0.0 0.00 0.00 0.00 99 1010.1
20260508102107 40 98 0.0 0.0 0.00 0.00 0.00 99 1010.4
20260508101604 40 118 0.0 0.0 0.00 0.00 0.00 99 1010.4
20260508101101 40 90 0.0 0.0 0.00 0.00 0.00 99 1010.3
20260508100559 40 86 0.0 0.0 0.00 0.00 0.00 99 1010.2
20260508100055 40 87 0.0 0.0 0.00 0.00 0.00 99 1010.1
20260508095553 39 83 0.0 0.0 0.00 0.00 0.00 99 1010.3
20260508095049 39 97 0.0 0.0 0.00 0.00 0.00 99 1010.3
20260508094547 39 97 0.0 0.0 0.00 0.00 0.00 99 1010.2
20260508094044 39 96 0.0 0.0 0.00 0.00 0.00 99 1010.4
20260508093541 39 100 0.0 0.0 0.00 0.00 0.00 99 1010.4
20260508093038 39 102 0.0 0.0 0.00 0.00 0.00 99 1010.4
20260508092535 39 102 0.0 0.0 0.00 0.00 0.00 98 1010.4
20260508092034 39 102 0.0 0.0 0.00 0.00 0.00 98 1010.4
20260508091531 40 116 0.0 0.0 0.00 0.00 0.00 98 1010.4
20260508091028 40 96 0.0 0.0 0.00 0.00 0.00 98 1010.3
20260508090526 40 85 0.0 0.0 0.00 0.00 0.00 98 1010.3
20260508090022 40 94 0.0 0.0 0.00 0.00 0.00 97 1010.5
20260508085519 40 95 0.0 0.0 0.00 0.00 0.00 97 1010.5
20260508085016 40 95 0.0 0.0 0.00 0.00 0.00 97 1010.7
20260508084513 40 101 0.0 0.0 0.00 0.00 0.00 97 1010.6
20260508084010 40 105 0.0 0.0 0.00 0.00 0.00 97 1010.6
20260508083507 40 103 0.0 0.0 0.00 0.00 0.00 97 1010.6
20260508083003 40 96 0.0 0.0 0.00 0.00 0.00 96 1010.7
20260508082459 41 90 0.0 0.0 0.00 0.00 0.00 96 1010.5
20260508081957 41 79 0.0 0.0 0.00 0.00 0.00 96 1010.5
20260508081454 41 116 0.0 0.0 0.00 0.00 0.00 96 1010.7
20260508080950 42 96 0.0 0.0 0.00 0.00 0.00 96 1010.7
20260508080449 42 81 0.0 0.0 0.00 0.00 0.00 96 1010.7
20260508075945 41 88 0.0 0.0 0.00 0.00 0.00 96 1010.8
20260508075442 41 94 0.0 0.0 0.00 0.00 0.00 96 1010.7
20260508074939 41 91 0.0 0.0 0.00 0.00 0.00 96 1010.5
20260508074437 41 95 0.0 0.0 0.00 0.00 0.00 96 1010.8
20260508073934 41 90 0.0 0.0 0.00 0.00 0.00 96 1010.8
20260508073431 42 90 0.0 0.0 0.00 0.00 0.00 96 1010.9
20260508072928 42 95 0.0 0.0 0.00 0.00 0.00 96 1010.9
20260508072424 42 96 0.0 0.0 0.00 0.00 0.00 96 1010.9
20260508071922 42 127 0.0 0.0 0.00 0.00 0.00 95 1011.0
20260508071420 42 91 0.0 0.0 0.00 0.00 0.00 95 1011.0
20260508070917 42 95 0.0 0.0 0.00 0.00 0.00 95 1011.1
20260508070415 42 100 0.0 0.0 0.00 0.00 0.00 95 1011.1
20260508065912 42 118 0.0 0.0 0.00 0.00 0.00 95 1010.9
20260508065410 42 100 0.0 0.0 0.00 0.00 0.00 94 1011.2
20260508064908 43 92 0.0 0.0 0.00 0.00 0.00 94 1011.1
20260508064405 43 91 0.0 0.0 0.00 0.00 0.00 93 1010.8
20260508063903 43 90 0.0 0.0 0.00 0.00 0.00 93 1011.2
20260508063401 43 88 0.0 0.0 0.00 0.00 0.00 93 1011.0
20260508062857 43 81 0.0 0.0 0.00 0.00 0.00 93 1010.8
20260508062355 43 94 0.0 0.0 0.00 0.00 0.00 92 1010.9
20260508061852 43 103 0.0 0.0 0.00 0.00 0.00 92 1010.9
20260508061349 44 97 0.0 0.0 0.00 0.00 0.00 91 1011.2
20260508060846 44 86 0.0 0.0 0.00 0.00 0.00 91 1010.9
20260508060344 44 93 0.0 0.0 0.00 0.00 0.00 90 1011.0
20260508055838 44 91 0.0 0.0 0.00 0.00 0.00 90 1011.1
20260508055336 45 90 0.0 0.0 0.00 0.00 0.00 89 1011.0
20260508054832 45 109 0.0 0.0 0.00 0.00 0.00 88 1010.7
20260508054330 46 98 0.0 0.0 0.00 0.00 0.00 88 1010.6
20260508053827 46 85 0.0 0.0 0.00 0.00 0.00 88 1010.9
20260508053324 46 90 0.0 0.0 0.00 0.00 0.00 88 1010.8
20260508052821 46 79 0.0 0.0 0.00 0.00 0.00 87 1010.6
20260508052319 46 103 0.0 0.0 0.00 0.00 0.00 87 1010.8
20260508051815 46 104 0.0 0.0 0.00 0.00 0.00 87 1010.6
20260508051310 46 110 0.0 0.0 0.00 0.00 0.00 87 1010.6
20260508050807 46 106 0.0 0.0 0.00 0.00 0.00 86 1010.7
20260508050304 46 100 0.0 0.0 0.00 0.00 0.00 86 1010.6
20260508045759 47 91 0.0 0.0 0.00 0.01 0.01 85 1010.5
20260508045257 47 92 0.0 0.0 0.00 0.01 0.01 84 1010.8
20260508044755 47 91 0.0 0.0 0.00 0.01 0.01 84 1010.6
20260508044251 48 91 0.0 0.0 0.00 0.01 0.01 83 1010.6
20260508043747 48 99 0.0 0.0 0.00 0.01 0.01 82 1010.6
20260508043245 48 104 0.0 0.0 0.00 0.01 0.01 81 1010.4
20260508042741 48 95 0.0 0.0 0.00 0.01 0.01 80 1010.5
20260508042239 48 92 0.0 0.0 0.00 0.01 0.01 80 1010.3
20260508041735 48 89 0.0 0.0 0.00 0.01 0.01 80 1010.4
20260508041232 48 96 0.0 0.0 0.00 0.01 0.01 79 1010.3
20260508040729 49 110 0.0 0.0 0.00 0.01 0.01 78 1010.4
20260508040226 49 107 0.0 0.9 0.00 0.01 0.01 77 1010.4
20260508035723 49 109 0.0 0.9 0.00 0.01 0.01 78 1010.5
20260508035221 48 107 0.0 0.0 0.00 0.01 0.01 78 1010.2
20260508034717 48 129 0.9 1.7 0.00 0.01 0.01 79 1010.0
20260508034215 47 101 0.0 0.0 0.00 0.01 0.01 81 1010.3
20260508033711 47 97 0.0 0.0 0.00 0.01 0.01 82 1010.2
20260508033210 47 99 0.0 0.0 0.00 0.01 0.01 81 1010.0
20260508032707 48 106 0.0 0.0 0.00 0.01 0.01 81 1009.9
20260508032204 48 103 0.0 0.0 0.00 0.01 0.01 78 1010.1
20260508031701 48 102 0.0 0.0 0.00 0.01 0.01 79 1009.9
20260508031157 48 93 0.0 0.0 0.00 0.01 0.01 80 1010.1
20260508030653 48 90 0.0 0.0 0.00 0.01 0.01 79 1010.0
20260508030151 49 81 0.0 0.9 0.00 0.01 0.01 77 1010.1
20260508025647 48 151 0.9 0.9 0.00 0.01 0.01 80 1010.0
20260508025144 47 103 0.0 0.0 0.00 0.01 0.01 81 1009.8
20260508024640 47 113 0.0 0.0 0.00 0.01 0.01 83 1010.0
20260508024138 48 105 0.0 0.0 0.00 0.01 0.01 82 1009.9
20260508023633 48 106 0.0 0.0 0.00 0.01 0.01 81 1009.8
20260508023132 48 108 0.0 0.0 0.00 0.01 0.01 81 1010.0
20260508022627 48 94 0.0 0.0 0.00 0.01 0.01 80 1010.0
20260508022124 49 94 0.0 0.0 0.00 0.01 0.01 79 1009.9
20260508021620 49 92 0.0 0.0 0.00 0.01 0.01 79 1009.8
20260508021116 49 92 0.0 0.0 0.00 0.01 0.01 79 1009.7
20260508020614 49 92 0.0 0.0 0.00 0.01 0.01 79 1009.6
20260508020111 49 95 0.0 0.0 0.00 0.01 0.01 78 1009.6
20260508015609 49 95 0.0 0.0 0.00 0.01 0.01 77 1009.5
20260508015105 49 95 0.0 0.0 0.00 0.01 0.01 77 1009.5
20260508014601 50 95 0.0 0.0 0.00 0.01 0.01 76 1009.3
20260508014058 50 96 0.0 0.0 0.00 0.01 0.01 75 1009.4
20260508013554 50 101 0.0 0.0 0.00 0.01 0.01 75 1009.2
20260508013051 50 95 0.0 0.0 0.00 0.01 0.01 75 1009.0
20260508012549 51 104 0.0 0.0 0.00 0.01 0.01 74 1009.2
20260508012046 51 104 0.0 0.0 0.00 0.01 0.01 72 1009.1
20260508011544 51 105 0.0 0.0 0.00 0.01 0.01 74 1009.1
20260508011041 51 113 0.0 0.0 0.00 0.01 0.01 74 1009.3
20260508010538 52 94 0.0 0.0 0.00 0.01 0.01 72 1009.1
20260508010035 52 94 0.0 0.0 0.00 0.01 0.01 71 1009.0
20260508005532 53 94 0.0 0.0 0.00 0.01 0.01 70 1009.1
20260508005029 53 94 0.0 0.0 0.00 0.01 0.01 68 1008.9
20260508004524 54 93 0.0 0.0 0.00 0.01 0.01 68 1008.8
20260508004021 54 92 0.0 0.0 0.00 0.01 0.01 67 1008.9
20260508003518 55 92 0.0 0.0 0.00 0.01 0.01 65 1008.9
20260508003016 56 92 0.0 0.0 0.00 0.01 0.01 65 1008.9
20260508002511 56 92 0.0 0.0 0.00 0.01 0.01 61 1009.0
20260508002009 56 92 0.0 0.0 0.00 0.01 0.01 63 1008.9
20260508001505 57 80 0.0 0.0 0.00 0.01 0.01 61 1008.9
20260508001001 57 80 0.0 0.0 0.00 0.01 0.01 60 1008.8
20260508000457 58 98 0.0 0.0 0.00 0.01 0.01 59 1009.0
20260507235954 58 102 0.9 1.7 0.00 0.01 0.01 58 1008.9
20260507235451 58 102 0.9 0.9 0.00 0.01 0.01 57 1008.8
20260507234949 58 111 0.9 1.7 0.00 0.01 0.01 59 1008.7
20260507234445 58 86 0.9 0.9 0.00 0.01 0.01 60 1008.8
20260507233941 58 167 0.9 0.9 0.00 0.01 0.01 59 1008.7
20260507233438 57 110 0.9 2.6 0.00 0.01 0.01 64 1008.9
20260507232937 56 69 0.9 0.9 0.00 0.01 0.01 63 1009.0
20260507232433 56 327 0.9 1.7 0.00 0.01 0.01 62 1008.9
20260507231930 56 62 0.0 1.7 0.00 0.01 0.01 63 1009.0
20260507231426 57 98 0.9 1.7 0.00 0.01 0.01 61 1008.8
20260507230923 57 280 1.7 1.7 0.00 0.01 0.01 62 1009.0
20260507230421 57 97 0.0 0.9 0.00 0.01 0.01 62 1009.2
20260507225921 56 95 0.0 0.9 0.00 0.01 0.01 64 1009.3
20260507225417 56 138 0.9 0.9 0.00 0.01 0.01 67 1009.3
20260507224913 56 355 0.9 1.7 0.00 0.01 0.01 68 1009.6
20260507224409 56 96 0.0 0.9 0.00 0.01 0.01 72 1009.7
20260507223906 56 61 0.0 0.9 0.00 0.01 0.01 72 1009.3
20260507223402 55 92 0.0 0.9 0.00 0.01 0.01 71 1009.6
20260507222859 56 73 0.9 0.9 0.00 0.01 0.01 70 1009.7
20260507222356 56 110 0.0 0.9 0.00 0.01 0.01 70 1009.6
20260507221853 56 91 0.0 0.0 0.00 0.01 0.01 70 1009.4
20260507221349 55 85 0.0 0.0 0.00 0.01 0.01 71 1009.6
20260507220845 56 81 0.0 0.9 0.00 0.01 0.01 69 1009.6
20260507220344 56 90 0.0 0.9 0.00 0.01 0.01 74 1009.8
20260507215839 55 97 0.0 0.9 0.00 0.01 0.01 75 1009.8
20260507215337 54 104 0.9 1.7 0.07 0.01 0.01 78 1009.5
20260507214834 53 75 0.9 5.2 0.07 0.01 0.01 76 1009.8
20260507214332 54 64 2.6 2.6 0.00 0.00 0.00 68 1009.9
20260507213826 55 43 1.7 5.2 0.00 0.00 0.00 60 1009.5
20260507213323 57 171 1.7 2.6 0.00 0.00 0.00 59 1009.5
20260507212820 58 117 2.6 2.6 0.00 0.00 0.00 60 1009.4
20260507212316 58 322 2.6 4.3 0.00 0.00 0.00 57 1009.2
20260507211813 59 206 1.7 7.0 0.00 0.00 0.00 55 1009.1
20260507211310 60 145 3.5 7.0 0.00 0.00 0.00 53 1009.2
20260507210806 60 262 2.6 5.2 0.00 0.00 0.00 51 1009.0
20260507210303 60 246 3.5 7.8 0.00 0.00 0.00 51 1008.9
20260507205759 62 38 1.7 7.8 0.00 0.00 0.00 51 1009.1
20260507205257 61 207 2.6 6.1 0.00 0.00 0.00 51 1009.2
20260507204752 62 287 3.5 6.1 0.00 0.00 0.00 48 1009.3
20260507204251 62 211 3.5 9.6 0.00 0.00 0.00 50 1009.2
20260507203748 62 163 2.6 7.0 0.00 0.00 0.00 50 1009.5
20260507203245 62 117 1.7 8.7 0.00 0.00 0.00 53 1009.4
20260507202742 61 183 2.6 8.7 0.00 0.00 0.00 54 1009.4
20260507202238 60 184 3.5 9.6 0.00 0.00 0.00 54 1009.6
20260507201732 60 308 3.5 6.1 0.00 0.00 0.00 55 1009.7
20260507201230 60 189 4.3 6.1 0.00 0.00 0.00 56 1009.7
20260507200726 60 266 3.5 12.2 0.00 0.00 0.00 53 1009.9
20260507200222 60 165 4.3 11.3 0.00 0.00 0.00 54 1010.0
20260507195719 60 121 5.2 7.8 0.00 0.00 0.00 54 1009.8
20260507195216 59 156 3.5 7.8 0.00 0.00 0.00 57 1010.0
20260507194713 59 186 4.3 7.0 0.00 0.00 0.00 55 1010.1
20260507194209 60 50 1.7 5.2 0.00 0.00 0.00 57 1010.4
20260507193706 60 204 2.6 7.0 0.00 0.00 0.00 57 1010.6
20260507193203 60 167 4.3 8.7 0.00 0.00 0.00 57 1010.5
20260507192658 59 171 3.5 8.7 0.00 0.00 0.00 56 1010.5
20260507192156 59 239 4.3 11.3 0.00 0.00 0.00 57 1010.8
20260507191651 58 178 3.5 13.0 0.00 0.00 0.00 58 1010.9
20260507191148 57 138 7.8 12.2 0.00 0.00 0.00 59 1010.8
20260507190645 57 163 4.3 13.0 0.00 0.00 0.00 57 1010.7
20260507190144 57 93 2.6 8.7 0.00 0.00 0.00 57 1011.1
20260507185642 56 285 5.2 12.2 0.00 0.00 0.00 57 1011.2
20260507185138 57 174 4.3 8.7 0.00 0.00 0.00 57 1011.2
20260507184636 59 139 1.7 11.3 0.00 0.00 0.00 56 1011.1
20260507184134 57 323 5.2 12.2 0.00 0.00 0.00 54 1011.1
20260507183630 59 236 4.3 11.3 0.00 0.00 0.00 51 1011.1
20260507183127 59 88 2.6 7.8 0.00 0.00 0.00 49 1011.3
20260507182624 59 247 5.2 11.3 0.00 0.00 0.00 48 1011.2
20260507182120 60 264 4.3 9.6 0.00 0.00 0.00 46 1011.2
20260507181616 59 269 2.6 7.0 0.00 0.00 0.00 46 1011.4
20260507181113 59 265 5.2 9.6 0.00 0.00 0.00 45 1011.3
20260507180609 59 162 1.7 7.8 0.00 0.00 0.00 48 1011.3
20260507180107 59 255 5.2 7.8 0.00 0.00 0.00 46 1011.3
20260507175602 59 263 2.6 7.8 0.00 0.00 0.00 48 1011.4
20260507175100 59 257 2.6 12.2 0.00 0.00 0.00 45 1011.6
20260507174557 60 264 6.1 9.6 0.00 0.00 0.00 41 1011.4
20260507174055 59 141 5.2 7.8 0.00 0.00 0.00 43 1011.8
20260507173552 60 245 4.3 7.8 0.00 0.00 0.00 43 1011.5
20260507173049 61 143 4.3 7.8 0.00 0.00 0.00 41 1011.8
20260507172544 60 176 2.6 5.2 0.00 0.00 0.00 43 1011.6
20260507172042 59 307 2.6 9.6 0.00 0.00 0.00 43 1012.1
20260507171537 59 111 1.7 2.6 0.00 0.00 0.00 46 1012.4
20260507171034 58 219 2.6 4.3 0.00 0.00 0.00 44 1012.3
20260507170531 58 223 2.6 5.2 0.00 0.00 0.00 45 1012.8
20260507170028 58 233 3.5 7.8 0.00 0.00 0.00 44 1012.5
20260507165524 58 291 3.5 5.2 0.00 0.00 0.00 44 1012.7
20260507165020 57 129 1.7 5.2 0.00 0.00 0.00 45 1012.7
20260507164517 57 182 1.7 6.1 0.00 0.00 0.00 46 1012.5
20260507164014 56 283 2.6 7.0 0.00 0.00 0.00 45 1012.7
20260507163511 58 166 3.5 5.2 0.00 0.00 0.00 44 1012.9
20260507163009 58 100 0.9 1.7 0.00 0.00 0.00 45 1012.9
20260507162503 58 321 2.6 5.2 0.00 0.00 0.00 43 1012.8
20260507162001 57 260 2.6 2.6 0.00 0.00 0.00 43 1013.1
20260507161456 57 197 2.6 6.1 0.00 0.00 0.00 42 1013.4
20260507160954 57 162 3.5 5.2 0.00 0.00 0.00 44 1013.5
20260507160449 56 126 2.6 7.8 0.00 0.00 0.00 44 1013.4
20260507155945 56 160 3.5 7.0 0.00 0.00 0.00 41 1013.5
20260507155442 56 191 2.6 4.3 0.00 0.00 0.00 44 1013.3
20260507154939 56 95 0.9 4.3 0.00 0.00 0.00 44 1013.7
20260507154435 56 261 2.6 7.8 0.00 0.00 0.00 44 1013.5
20260507153933 55 186 0.9 2.6 0.00 0.00 0.00 45 1013.4
20260507153429 55 207 3.5 4.3 0.00 0.00 0.00 47 1013.7
20260507152925 55 156 0.9 2.6 0.00 0.00 0.00 42 1013.8
20260507152422 54 103 0.0 2.6 0.00 0.00 0.00 45 1013.8
20260507151918 56 236 2.6 4.3 0.00 0.00 0.00 44 1014.0
20260507151415 55 100 0.0 2.6 0.00 0.00 0.00 44 1013.9
20260507150912 54 206 0.9 2.6 0.00 0.00 0.00 48 1014.1
20260507150408 54 112 0.9 1.7 0.00 0.00 0.00 49 1014.2
20260507145905 53 182 0.9 1.7 0.00 0.00 0.00 47 1014.2
20260507145401 52 26 0.9 2.6 0.00 0.00 0.00 46 1014.2
20260507144858 53 152 3.5 5.2 0.00 0.00 0.00 48 1014.5
20260507144355 52 114 1.7 2.6 0.00 0.00 0.00 49 1014.5
20260507143852 52 134 0.9 2.6 0.00 0.00 0.00 49 1014.5
20260507143349 52 204 2.6 5.2 0.00 0.00 0.00 51 1014.7
20260507142845 52 263 1.7 2.6 0.00 0.00 0.00 51 1014.8
20260507142341 51 225 1.7 2.6 0.00 0.00 0.00 52 1014.6
20260507141838 51 171 2.6 5.2 0.00 0.00 0.00 51 1014.7
20260507141335 51 147 3.5 5.2 0.00 0.00 0.00 50 1015.0
20260507140831 50 165 1.7 2.6 0.00 0.00 0.00 54 1014.9
20260507140328 50 186 1.7 2.6 0.00 0.00 0.00 52 1014.6
20260507135826 50 100 1.7 2.6 0.00 0.00 0.00 52 1014.8
20260507135323 48 163 2.6 5.2 0.00 0.00 0.00 53 1014.7
20260507134820 48 173 0.9 2.6 0.00 0.00 0.00 54 1014.8
20260507134316 47 98 0.0 0.9 0.00 0.00 0.00 57 1014.8
20260507133812 47 156 1.7 2.6 0.00 0.00 0.00 55 1015.1
20260507133308 47 174 2.6 4.3 0.00 0.00 0.00 55 1014.8